Powrót do katalogu

NOAA 16 DEB

AktywnySSO
NORAD 41508·DEBRIS·🇺🇸 United States

Wystrzelony Sep 21, 2000 z Vandenberg Space Force Base

Loading…

Następne Przeloty (najbliższe 24 godziny)

TLE

ŚwieżeSource: Space-Track

Epoka: Sep 13, 2026, 14:04 UTC

1 41508U 00055MG  26256.58634061  .00002680  00000-0  95312-3 0  9991
2 41508  98.8729  25.0166 0023196  24.8014 335.4280 14.35058433539326

Śledź NOAA 16 DEB w czasie rzeczywistym z AllMySat

Download on the App Store